Location: ???
(60.6398°N, 46.9067°E)
Time: 18:27:16
(UTC+00:00)

SeaSat 1 - Pass Details

Date: 08 December 2019
Orbit: 744 x 747 km, 108.0° (Epoch: 16 January)

Event Time Altitude Azimuth Distance (km) Brightness Sun altitude
Exits shadow 15:08:34 52° 120° (ESE) 933 2.6 -22.6°
Maximum altitude 15:09:46 77° 47° (NE) 772 2.3 -22.8°
Drops below altitude 10° 15:14:43 10° 322° (NW) 2,277 5.3 -23.4°
Sets 15:17:00 0° 321° (NW) 3,205 6.2 -23.7°
